www.pogodaiklimat.ru
ПОГОДА в Маунт Плезант
Время
(UTC), дата
11 6.08
10 6.08
12 6.08
13 6.08
14 6.08
15 6.08
17 6.08
16 6.08
18 6.08
19 6.08
20 6.08
21 6.08
23 6.08
22 6.08
00 7.08
01 7.08
02 7.08
03 7.08
05 7.08
04 7.08
06 7.08
07 7.08
08 7.08
09 7.08
11 7.08
10 7.08
12 7.08
13 7.08
14 7.08
15 7.08
17 7.08
16 7.08
18 7.08
19 7.08
20 7.08
21 7.08
23 7.08
22 7.08
00 8.08
01 8.08
02 8.08
03 8.08
05 8.08
04 8.08
06 8.08
07 8.08
08 8.08
09 8.08
11 8.08
10 8.08
12 8.08
13 8.08
14 8.08
15 8.08
17 8.08
16 8.08
18 8.08
19 8.08
20 8.08
21 8.08
23 8.08
22 8.08
00 9.08
01 9.08
02 9.08
03 9.08
05 9.08
04 9.08
06 9.08
07 9.08
08 9.08
09 9.08
11 9.08
10 9.08
12 9.08
13 9.08
14 9.08
15 9.08
17 9.08
16 9.08
18 9.08
19 9.08
20 9.08
21 9.08
23 9.08
22 9.08
00 10.08
01 10.08
02 10.08
03 10.08
05 10.08
04 10.08
06 10.08
07 10.08
08 10.08
09 10.08
11 10.08
10 10.08
12 10.08
13 10.08
14 10.08
15 10.08
17 10.08
16 10.08
18 10.08
19 10.08
20 10.08
21 10.08
23 10.08
22 10.08
00 11.08
01 11.08
02 11.08
03 11.08
05 11.08
04 11.08
06 11.08
07 11.08
08 11.08
09 11.08
11 11.08
10 11.08
12 11.08
13 11.08
14 11.08
15 11.08
17 11.08
16 11.08
18 11.08
19 11.08
20 11.08
21 11.08
23 11.08
22 11.08
00 12.08
01 12.08
02 12.08
03 12.08
05 12.08
04 12.08
06 12.08
07 12.08
08 12.08
09 12.08
11 12.08
10 12.08
12 12.08
13 12.08
14 12.08
15 12.08
17 12.08
16 12.08
18 12.08
19 12.08
20 12.08
21 12.08
23 12.08
22 12.08
00 13.08
01 13.08
02 13.08
03 13.08
05 13.08
04 13.08
06 13.08
07 13.08
08 13.08
09 13.08
11 13.08
10 13.08
Ветер
(напр.,м/с)
Видим. Явления Облачность Т
(С)
Тd
(С)
f
(%)
Тe
(С)
Тes
(С)
Комфортность P
(гПа)
Po
(гПа)
Тmin
(С)
Tmax
(С)
R
(мм)
R24
(мм)
S
(см)
З 3 15 км слаб. дождь 9/9 1350 м
[Sc]
+2.0 +1.7 98 -2 -2 991.5 983.0
З 4 15 км дождь {снег} 9/9 90 м
[Sc]
+2.3 +1.9 97 -3 -3 991.9 983.4
З 3 15 км слаб. дождь 10/10 1500 м
[Sc]
+2.0 +1.7 98 -2 -2 991.4 982.9 2
З 4 10 км слаб. дождь 10/10 210 м
[Sc]
+2.3 +2.1 99 -3 -3 991.2 982.7
З 5 10 км дождь {снег} 10/10 210 м
[Sc]
+2.9 +2.5 97 -3 -3 991.2 982.8
З 6 15 км слаб. дождь 10/10 210 м
[Sc]
+3.3 +2.8 97 -2 -2 991.7 983.3
ЮЗ 10
{15}
15 км слаб. дождь 10/10 150 м
[Sc]
+4.3 +3.7 96 -3 -3 992.8 984.3
ЮЗ 7 20 км слаб. дождь 10/10 150 м
[St]
+3.7 +3.2 97 -3 -3 991.9 983.4
ЮЗ 13
{17}
7000 м дождь {снег} 9/9 180 м
[Sc]
+3.8 +3.2 96 -4 -4 993.8 985.3 +4.4 3
ЮЗ 11
{18}
25 км в посл. час дождь 6/6 900 м
[Sc Ci fib]
+3.8 +1.7 86 -3 -3 995.2 986.7
ЮЗ 10
{15}
25 км 5/5 750 м
[Sc]
+3.5 +1.5 87 -4 -4 996.3 987.8
З 10
{13}
25 км {дождь} 4/4 600 м
[Sc]
+2.7 +1.3 90 -5 -5 997.1 988.6
З 8 30 км 1/1 700 м
[Sc]
+1.0 -0.1 92 -6 -6 998.6 990.0
З 8 30 км 3/3 600 м
[Sc]
+2.0 +0.7 91 -5 -5 998.2 989.7
З 8 30 км {дождь} 1/1 700 м
[Sc]
+0.9 -0.4 91 -6 -6 998.1 989.5 0.0
З 9 30 км ясно +0.8 -0.4 92 -7 -7 998.8 990.2
СЗ 4 30 км ясно +0.6 -0.7 91 -5 -5 999.2 990.6
З 6 30 км 9/0
[Cs]
+1.2 -1.7 81 -5 -5 998.8 990.2
СЗ 4 30 км 9/0
[Ac lent Cs]
+2.5 +0.6 87 -2 -2 997.9 989.4
СЗ 2 30 км 9/0
[Ac trans Cs]
+2.6 0.0 83 -1 -1 998.3 989.8
ЮВ 2 20 км 10/0
[As op Cs]
+2.5 +0.4 86 -0 -0 997.4 988.8 +0.1 0.0 3.2
СЗ 3 20 км слаб. ливневой дождь 9/9 600 м
[Cu Sc]
+3.7 +1.6 86 -0 -0 997.2 988.7
СЗ 3 30 км в посл. час ливневой дождь 9/9 600 м
[Cu Sc]
+3.6 +2.3 91 0 0 996.9 988.4
З 7 10 км ливневой дождь 9/9 240 м
[Cu Sc]
+2.7 +1.6 92 -4 -4 997.5 988.9
З 5 4000 м слаб. ливневой дождь 9/9 300 м
[Cu Sc]
+1.7 +1.3 97 -4 -4 998.7 990.1
ЮЗ 6 15 км слаб. ливневой дождь 9/9 90 м
[Cu Sc]
+1.8 +1.3 96 -5 -5 998.1 989.5
З 8 25 км в посл. час ливневой дождь 8/8 420 м
[Sc diur, vesp]
+2.9 +2.6 98 -4 -4 999.6 991.0 2
З 9 30 км 4/4 540 м
[Sc diur, vesp]
+2.9 +2.4 97 -4 -4 1000.4 991.9
ЮЗ 9
{14}
20 км в посл. час ливневой дождь 8/8 360 м
[Sc diur, vesp]
+4.0 +2.9 93 -3 -3 1002.3 993.8
ЮЗ 8
{14}
25 км в посл. час ливневой дождь 5/5 360 м
[Sc diur, vesp]
+3.8 +2.0 88 -3 -2 1004.1 995.5
ЮЗ 11
{14}
7000 м в посл. час ливневой дождь 6/6 600 м
[Sc diur, vesp]
+5.0 +0.3 72 -1 -1 1005.4 996.9
ЮЗ 9
{13}
30 км 1/1 600 м
[Sc diur, vesp Ci fib]
+5.3 +1.0 74 -1 -0 1004.8 996.3
ЮЗ 12
{18}
25 км в посл. час ливневой дождь 3/1 600 м
[Cu med, cong Ci fib]
+3.8 +0.5 79 -3 -3 1006.2 997.7 +5.7 2
З 8
{15}
30 км в посл. час крупа {ливн. снег} 8/5 600 м
[Cu Sc Ac trans]
+3.4 +1.8 89 -3 -3 1007.4 998.8
З 9 30 км 3/3 840 м
[Sc Ci fib]
+3.7 +0.7 81 -3 -3 1008.0 999.4
З 7 30 км {ливн. дождь} 1/1 800 м
[Sc]
+2.5 +0.3 85 -4 -4 1008.5 999.9
З 9 25 км 1/1 750 м
[Sc]
+2.6 +0.4 85 -4 -4 1009.2 1000.5
З 8 25 км 1/1 800 м
[Sc]
+2.4 +0.3 86 -4 -4 1009.0 1000.4
З 10
{13}
25 км {ливн. дождь} 1/1 750 м
[Sc]
+2.8 +0.4 84 -5 -5 1009.6 1000.9 0.2
З 10
{14}
25 км 1/1 960 м
[Sc]
+2.7 +0.6 86 -5 -5 1009.9 1001.2
З 9 25 км 1/1 960 м
[Sc]
+2.5 +0.6 87 -5 -5 1010.0 1001.3
З 9
{13}
25 км 3/3 900 м
[Sc]
+2.9 +0.6 85 -4 -4 1010.2 1001.6
З 8 25 км ясно +3.2 +0.3 81 -3 -3 1010.8 1002.2
З 8 25 км 3/3 960 м
[Sc]
+2.9 +0.6 85 -4 -4 1010.7 1002.1
СЗ 6 25 км 10/0
[Cs]
+3.1 0.0 80 -2 -2 1011.0 1002.3 +1.9 0.2 2.6
СЗ 5 25 км 9/0
[Cs]
+2.8 -0.6 78 -2 -2 1010.3 1001.7
СЗ 7 25 км 9/0
[Cs]
+3.3 +0.4 81 -3 -3 1009.8 1001.2
СЗ 8 25 км 9/0
[Ac trans Cs]
+3.2 +0.8 84 -3 -3 1009.0 1000.4
СЗ 8
{15}
25 км 9/3 540 м
[Sc Cs]
+4.5 +1.3 80 -1 -1 1007.8 999.3
СЗ 4 25 км 9/0
[Ac trans Cs]
+3.3 +1.8 90 -2 -2 1008.6 1000.0
С 9
{15}
25 км 9/3 540 м
[Sc As op]
+4.6 +2.1 84 -2 -2 1006.9 998.3
С 6 25 км 10/3 240 м
[Sc As op]
+4.6 +1.9 83 -1 -0 1005.8 997.3
С 12
{16}
25 км 10/1 210 м
[St As op]
+4.5 +3.0 90 -3 -3 1003.7 995.1
С 14
{19}
25 км 10/1 210 м
[St Ac As]
+4.9 +2.7 86 -3 -3 1002.5 994.0
С 10
{15}
10 км дождь 10/10 420 м
[Sc]
+4.4 +2.9 90 -2 -2 998.6 990.1
С 9
{17}
15 км слаб. дождь 10/8 540 м
[Sc As op]
+4.8 +2.4 84 -2 -2 1001.2 992.7
С 11
{15}
7000 м дождь 10/10 270 м
[Frnb]
+3.6 +2.7 94 -4 -4 995.6 987.1 +5.0 3
С 12
{16}
7000 м дождь 10/10 300 м
[Frnb]
+3.6 +2.6 93 -4 -4 993.5 985.0
С 12
{18}
10 км дождь 10/8 300 м
[Frnb As op]
+4.1 +3.1 93 -3 -3 990.4 982.0
С 8
{17}
12 км дождь 10/8 300 м
[Frnb As op]
+4.9 +4.0 94 -1 -1 988.6 980.2
СЗ 4 15 км дождь 10/10 400 м
[Sc]
+5.4 +4.5 94 +1 +1 985.7 977.3
С 7 15 км дождь 10/10 360 м
[Sc]
+5.2 +4.3 94 -0 -0 986.9 978.5
З 4 15 км дождь {снег} 10/10 400 м
[Sc]
+5.2 +4.2 93 +1 +1 984.9 976.5 7
З 6 7000 м дождь {снег} 10/10 330 м
[Sc]
+4.9 +4.2 95 -0 -0 984.1 975.8
З 6 2500 м морось {снег} 10/10 90 м
[St]
+4.7 +4.3 97 -1 -1 983.8 975.4
З 6 2000 м слаб. морось {дождь} 10/10 60 м
[Frnb]
+4.4 +4.2 99 -1 -1 983.6 975.2
Ю 11
{14}
10 км слаб. дождь 10/10 60 м
[St]
+3.8 +3.6 99 -4 -4 984.6 976.2
ЮЗ 6 3000 м дождь {снег} 10/10 60 м
[St]
+4.0 +3.8 99 -2 -2 983.8 975.4
Ю 12
{17}
12 км слаб. дождь 10/10 210 м
[Frnb]
+3.1 +2.7 97 -5 -5 986.4 977.9 +3.0 8 11.4
Ю 15-21
{21}
15 км слаб. дождь 10/10 360 м
[Sc]
+3.0 +2.4 96 -6 -6 988.0 979.5
Ю 16-22
{23}
15 км слаб. дождь 10/10 330 м
[Sc]
+3.1 +2.3 94 -6 -6 989.6 981.1
Ю 16-22
{24}
15 км слаб. дождь 10/10 300 м
[Sc]
+3.3 +2.2 92 -5 -5 991.9 983.4
Ю 15-21
{21}
20 км 9/6 400 м
[Sc Ac As]
+3.2 +1.7 90 -5 -5 996.6 988.1
Ю 16-22
{23}
20 км в посл. час дождь со снегом 9/9 400 м
[Sc]
+3.2 +2.0 92 -5 -5 994.5 986.0
Ю 12
{21}
20 км {дождь} 8/4 420 м
[St Ac trans]
+3.1 +1.7 91 -5 -5 998.7 990.2 0.8
Ю 11
{16}
30 км 8/5 600 м
[Sc Ac trans Ci fib]
+3.7 +1.9 88 -4 -4 1000.0 991.5
Ю 10
{14}
30 км 5/5 660 м
[Sc Ac trans Ci fib]
+4.1 +2.4 89 -3 -3 1001.3 992.7
Ю 9
{14}
35 км 6/6 630 м
[Sc]
+5.0 +2.1 81 -1 -1 1002.2 993.7
ЮЗ 8 30 км 6/6 750 м
[Sc]
+5.0 +2.2 82 -1 -1 1003.3 994.8
Ю 8 20 км 8/8 540 м
[Cu Sc]
+4.8 +2.1 83 -1 -1 1002.8 994.3
Ю 6 30 км 9/9 800 м
[Sc]
+4.6 +1.6 81 -1 -1 1004.2 995.6 +6.0 0.8
Ю 6 30 км 9/9 540 м
[Cu Sc]
+4.8 +1.4 79 -0 -0 1004.8 996.3
ЮЗ 3 30 км 9/9 800 м
[Sc]
+4.2 +1.6 83 +1 +1 1005.4 996.9
ЮЗ 4 30 км 9/9 800 м
[Sc]
+3.7 +0.2 78 -0 -0 1005.9 997.3
СЗ 2 30 км 1/1 800 м
[Sc]
+1.8 -0.5 85 -1 -1 1005.8 997.2
Ю 2 30 км 3/3 750 м
[Sc]
+2.0 -0.9 81 -1 -1 1006.0 997.4
С 2 30 км 1/0
[Ci fib]
+1.6 -0.2 88 -1 -1 1005.6 997.0
С 3 30 км 6/0
[Ci sp]
-0.2 -1.7 90 -5 -5 1005.8 997.1
С 4 30 км 8/3 800 м
[Sc Ci sp]
+1.4 -0.5 87 -4 -4 1005.6 996.9
С 3 30 км 8/4 750 м
[Sc Ci sp]
+1.5 -0.4 87 -3 -3 1005.3 996.7
С 3 30 км 8/8 330 м
[Sc]
+1.2 +0.1 92 -3 -3 1005.1 996.5
С 3 30 км 10/10 720 м
[Sc]
+1.5 -0.6 86 -2 -2 1005.4 996.7
С 5 20 км слаб. ливневой дождь 9/6 300 м
[Cu Sc Ci sp]
+2.0 +0.6 90 -4 -4 1004.7 996.0 -0.9 0.0 0.8
СВ 4 30 км в посл. час ливневой дождь 9/4 300 м
[Cu med, cong Cs]
+0.7 -0.2 94 -5 -5 1003.6 995.0
С 5 30 км 9/4 360 м
[St Cs]
+2.3 +0.3 87 -3 -3 1002.9 994.3
С 4 30 км {ливн. снег} 9/3 480 м
[Sc Cs]
+1.6 0.0 89 -3 -3 1002.6 994.0
С 3 30 км 9/1 600 м
[Sc Ac As]
+1.1 -0.1 92 -3 -3 1001.8 993.2
С 5 30 км 9/1 600 м
[Sc Cs]
+1.2 -0.2 90 -4 -4 1002.1 993.5
В 3 30 км {ливн. снег} 9/1 240 м
[Cu hum As op]
+0.8 -0.8 89 -3 -3 1001.7 993.1 0.0
ЮВ 2 40 км 9/1 240 м
[Cu hum Ac trans Cs]
+1.3 0.0 91 -2 -2 1001.4 992.8
СВ 4 40 км 10/1 240 м
[Cu hum Ac As Cs]
+2.4 +1.2 92 -3 -2 1000.6 992.1
СВ 6 40 км 10/1 360 м
[Cu hum Ac As Cs]
+3.2 +1.6 89 -2 -2 1000.1 991.5
С 5 40 км 10/8 600 м
[Cu Sc Cs]
+4.0 +0.3 77 -1 -1 998.5 990.0
СВ 5 40 км 10/10 540 м
[Cu Sc]
+4.1 +1.3 82 -1 -1 999.2 990.7
С 5 40 км 10/8 450 м
[Cu Sc Cs]
+3.7 +0.9 82 -1 -1 997.9 989.4 +4.4 0.0
С 5 40 км 10/5 480 м
[Cu hum As op]
+3.6 +0.8 82 -1 -1 997.3 988.8
С 5 30 км слаб. ливневой дождь 10/5 480 м
[Cu med, cong As op]
+3.3 +1.0 85 -2 -2 997.0 988.5
С 4 40 км в посл. час ливневой дождь 10/4 600 м
[Sc As op]
+2.2 +0.7 90 -3 -3 997.0 988.5
С 4 27 км 10/0 2000 м
[As trans]
+1.8 +0.6 92 -3 -3 996.8 988.2
С 3 40 км 10/4 1350 м
[Sc As op]
+1.6 +0.3 91 -2 -2 997.1 988.5
З 3 30 км {ливн. снег} 6/0
[As trans]
+1.0 -0.3 91 -4 -4 996.7 988.1 0.0
З 6 7000 м слаб. ливневой дождь 10/10 90 м
[Cu Sc]
+1.0 +0.5 96 -6 -6 996.5 987.9
З 6 10 км слаб. дождь со снегом 10/10 120 м
[Frnb]
+0.3 0.0 98 -7 -7 996.5 987.9
ЮЗ 3 28 км в посл. час ливневой снег 8/8 1500 м
[Sc]
+0.1 -0.2 98 -4 -4 996.2 987.6
З 3 20 км в посл. час ливневой дождь 8/8 150 м
[Cu Sc]
-0.4 -0.8 97 -5 -5 996.0 987.4
З 3 15 км слаб. ливневой дождь 8/8 500 м
[Cu med, cong]
+0.1 -0.2 98 -5 -5 996.2 987.5
З 4 20 км {ливн. снег, снег} 5/1 720 м
[Sc Ac trans]
-1.0 -1.4 97 -7 -7 995.9 987.3 -1.0 0.0
З 5 30 км 3/0
[Ac trans]
-1.0 -1.5 96 -8 -8 995.6 986.9
З 5 30 км 3/3 870 м
[Sc]
-2.2 -3.3 92 -9 -9 995.6 986.9
З 5 30 км 1/1 900 м
[Sc]
-1.5 -3.4 87 -8 -8 995.7 987.0
З 6 25 км 3/0
[Ac trans]
-2.3 -3.9 89 -9 -9 995.8 987.1
З 5 35 км 1/0
[Ac trans Ci fib]
-2.7 -4.8 85 -9 -9 995.7 987.0
З 6 30 км 4/3 750 м
[Sc Ac trans Ci fib]
-1.5 -3.0 89 -8 -8 995.8 987.2
З 6 30 км 4/4 300 м
[Cu Sc Ci fib]
+0.4 -1.1 90 -6 -6 995.6 987.0
З 6 30 км 4/1 360 м
[Cu Sc Ci fib]
+2.0 -0.2 85 -4 -3 994.8 986.3
З 6 30 км 4/1 360 м
[Cu hum Ci fib]
+3.2 -0.3 78 -2 -1 994.2 985.7
З 4 50 км 1/1 840 м
[Cu hum Ci sp]
+4.3 -4.6 52 +1 +2 992.9 984.4
З 5 35 км 3/1 450 м
[Cu hum Ci fib]
+3.7 -2.3 65 -1 +1 993.6 985.1
З 6 50 км 4/3 1050 м
[Sc diur, vesp Ci fib]
+4.5 -3.9 54 -0 +1 992.7 984.3 +4.7 0.2
З 5 50 км 8/1 840 м
[Cu hum Ac lent]
+3.3 -3.6 61 -2 -1 991.9 983.4
С 4 40 км 9/0
[Ac lent]
+2.9 -2.3 69 -1 -1 990.9 982.4
СЗ 5 40 км 9/0
[Ac As]
+2.2 -1.8 75 -3 -3 990.3 981.8
С 7 30 км 8/8 1440 м
[Sc Ac trans]
+1.9 +0.2 88 -5 -5 988.7 980.2
С 7 35 км 9/6 1200 м
[Sc Ac trans]
+2.3 -1.2 78 -4 -4 989.8 981.3
С 8
{13}
20 км слаб. ливневой дождь 10/10 900 м
[Cu Sc]
+2.0 +1.3 95 -5 -5 988.1 979.7 0.0
С 6 24 км в посл. час ливневой дождь 10/6 90 м
[Sc Ac trans]
+2.2 +1.7 96 -4 -4 987.5 979.0
З 4 30 км 10/8 500 м
[Sc Ac trans]
+1.8 +0.9 94 -3 -3 987.2 978.8
З 6 30 км {ливн. снег} 1/1 1500 м
[Sc Ac trans Ci sp]
+1.4 -0.4 88 -5 -5 986.8 978.3
З 5 30 км 5/1 1140 м
[Sc Ac trans]
+1.0 -0.8 88 -5 -5 985.8 977.3
СЗ 4 30 км 1/1 1140 м
[Sc]
+0.7 -1.2 87 -4 -4 986.6 978.1
З 6 30 км {ливн. снег} 6/0
[Ac trans Ci fib]
+1.9 -0.2 86 -4 -4 985.3 976.8 +0.7 0.0 0.2
СЗ 6 30 км 8/0 2000 м
[Ac As]
+2.3 -0.4 82 -4 -4 984.7 976.3
СЗ 4 27 км 9/6 1110 м
[Sc Ac trans]
+1.8 +0.1 88 -3 -3 984.3 975.9
С 5 30 км 9/1 1500 м
[Sc Ac trans]
+1.0 -0.2 92 -5 -5 983.7 975.2
С 5 15 км слаб. ливневой дождь 9/9 450 м
[Cu Sc]
+1.3 +0.6 95 -4 -4 983.1 974.6
С 5 30 км 9/3 720 м
[Sc Ac trans Ci fib]
+0.9 0.0 94 -5 -5 983.2 974.7
С 4 30 км в посл. час ливневой дождь 6/5 300 м
[Sc Ac trans]
+1.0 +0.2 94 -4 -4 982.7 974.2 0.0
С 5 30 км 5/4 150 м
[Sc Ac trans Ci fib]
+1.0 +0.2 94 -5 -5 982.7 974.2
С 4 30 км 5/4 120 м
[Cu med, cong Ac trans Ci sp]
+1.6 +0.9 95 -3 -2 982.6 974.1
С 5 30 км 9/9 60 м
[Sc]
+1.9 +1.3 96 -4 -4 982.6 974.1
Ю 3 30 км 6/6 180 м
[Cu Sc Ac trans]
+5.0 +0.9 75 +2 +3 982.0 973.7
С 4 30 км 9/8 120 м
[Sc Ac trans]
+3.1 +2.3 94 -2 -2 982.3 973.9
Ю 4 25 км осадки на расстоянии 6/6 180 м
[Cu Sc Ci fib]
+3.9 +1.3 83 -0 0 982.3 973.9 +5.9 0.2
Ю 3 30 км 9/9 720 м
[Cu Sc]
+3.6 +1.6 87 -0 -0 982.9 974.5
ЮЗ 3 30 км 9/6 420 м
[Cu Sc Ac trans Ci fib]
+3.1 +1.0 86 -1 -0 983.2 974.8
ЮЗ 3 30 км 9/9 300 м
[St]
+2.4 +1.1 91 -2 -2 983.7 975.3
ЮЗ 4 8000 м дымка 9/9 120 м
[St]
+1.2 +0.4 94 -4 -4 985.2 976.7
ЮЗ 3 30 км 9/9 210 м
[St]
+1.6 +0.5 92 -3 -3 984.6 976.1
З 4 1500 м морось {снег} 9/9 90 м
[Frnb]
+0.5 0.0 96 -5 -5 985.6 977.1 0.0
СЗ 4 800 м туман {снег} 10/10 30 м
[Frnb]
+0.2 -0.1 98 -5 -5 986.0 977.5
З 5 600 м туман 10/10 30 м
[St]
+0.9 +0.7 99 -5 -5 986.4 977.9
ЮЗ 5 10 км дождь {снег} 9/9 90 м
[St]
+1.5 +1.3 99 -5 -5 986.8 978.3
ЮЗ 8 3000 м ливневой снег 9/9 90 м
[Cb cap]
+0.5 +0.3 99 -7 -7 988.0 979.4
ЮЗ 5 12 км ливневой дождь 9/9 90 м
[Cu med, cong]
+1.2 +1.1 99 -5 -5 987.2 978.7
ЮЗ 7 20 км слаб. ливневой дождь 9/9 180 м
[Cu Sc]
+1.1 +1.0 99 -6 -6 988.7 980.2 +0.2 0.6 0.8
ЮЗ 5 20 км в посл. час ливневой снег 9/9 240 м
[Sc Ac lent]
+0.9 +0.5 97 -5 -5 988.9 980.4
Ю 7-14
{14}
2000 м ливневой снег 9/9 240 м
[Cb cap]
+1.2 +0.6 96 -6 -6 989.6 981.0
ЮЗ 9 4000 м слаб. ливневой снег 9/8 480 м
[Cu Sc Ac As]
+1.0 0.0 93 -7 -7 990.2 981.7
З 8 25 км 8/5 1140 м
[Sc Ac trans]
+0.3 -1.2 90 -7 -7 991.6 983.1
ЮЗ 7
{13}
25 км в посл. час ливневой снег 9/4 1020 м
[Sc Ac trans]
+0.7 -0.4 92 -6 -6 990.8 982.3
Местоположение метеостанции Маунт Плезант (Фолклендские Острова): широта -51.81 долгота -58.45 высота над уровнем моря 74 м.
В архиве по умолчанию представлена погода в Маунт Плезант за последнюю неделю. Архивные данные за месяц целиком и за предыдущие месяцы, начиная с января 2011 года, Вы можете получить, выбрав интересующий диапазон дат из раскрывающегося списка и нажав кнопку "Найти!".
*Определитесь, кто Вы:
Внимание! Время в таблицах - всемирное. Для получения местного времени необходимо прибавить поправку, которая равна -4 ч.
Смотрите также архив погоды в соседних городах и на ближайших метеорологических станциях:
Партнеры нашего сайта:      
Пояснения к столбцам:
  • Ветер - указаны скорость ветра в м/с - средняя за 10 мин, порывы в срок и между сроками (в фигурных скобках) и направление, откуда дует ветер: С - северный,
  • СВ - северо-восточный, В - восточный, ЮВ - юго-восточный, Ю - южный, ЮЗ - юго-западный, З - западный, СЗ - северо-западный.
  • Видимость - горизонтальная дальность видимости в метрах или километрах. При видимости от 1 до 10 км при отсутствии осадков обычно наблюдается дымка, при ухудшении видимости до 1 км и менее - туман. В сухую погоду видимость может ухудшаться дымом, пылью или мглою.
  • Явления - указаны атмосферные явления, наблюдавшиеся в срок или в последний час перед сроком; фигурными скобками обозначены явления, наблюдавшиеся между сроками (за 1-3 часа до срока); квадратными скобками обозначены град или гололедные отложения с указанием их диаметра в мм.
  • Облачность - указаны через наклонную черту общая и нижняя облачность в баллах и высота нижней границы облаков в метрах; квадратными скобками обозначены формы облаков: Ci - перистые, Cs - перисто-слоистые, Cc - перисто-кучевые, Ac - высококучевые, As - высокослоистые, Sc - слоисто-кучевые, Ns - слоисто-дождевые, Cu - кучевые, Cb - кучево-дождевые. Подробнее классификацию облаков см. в Атласе облаков (PDF).
  • T - Температура воздуха - температура, измеренная на высоте 2 м над землей.
  • Td - Температура точки росы - температура, при понижении до которой содержащийся в воздухе водяной пар достигнет насыщения.
  • f - Относительная влажность воздуха - влажноcть воздуха, измеренная на высоте 2 м над землей.
  • Te - Эффективная температура - температура, которую ощущает одетый по сезону человек в тени. Характеристика душности погоды. При расчете учитывается влияние влажности воздуха и скорости ветра на теплоощущения человека.
  • Tes - Эффективная температура на солнце - температура, которую ощущает человек, с поправкой на солнечный нагрев. Характеристика знойности погоды. Зависит от высоты солнца над горизонтом, облачности и скорости ветра. Ночью, в пасмурную погоду, а также при ветре 12 м/с и более поправка равна нулю.
  • P - Атмосферное давление - приведенное к уровню моря атмосферное давление.
  • Po - Атмосферное давление - измеренное на уровне метеостанции атмосферное давление.
  • Tmin - Минимальная температура - минимум температуры воздуха на высоте 2 м над землей.
  • Tmax - Максимальная температура - максимум температуры воздуха на высоте 2 м над землей.
  • R - Количество осадков - Количество выпавших осадков за период времени, мм. При наведении курсора мыши на число - период времени, за который выпало указанное количество осадков.
  • R24 - Количество осадков - Количество выпавших осадков за 24 часа, мм.
  • S - Снежный покров - Высота снежного покрова, см. При наведении курсора мыши на число - состояние снежного покрова и степень покрытия местности в баллах.